Location: College Park
(38.9810°N, 76.9370°W)
Time: 11:11:41

Envisat - Pass Details

Date: 10 March 2018
Orbit: 764 x 766 km, 98.2° (Epoch: 23 March)

Event Time Altitude Azimuth Distance (km) Brightness Sun altitude
Rises 20:00:34 0° 180° (S) 3,216 6.1 -22.2°
Reaches altitude 10° 20:02:55 10° 186° (S) 2,294 5.4 -22.6°
Maximum altitude 20:07:49 49° 260° (W) 979 3.8 -23.5°
Drops below altitude 10° 20:12:44 10° 336° (NNW) 2,309 6.0 -24.5°
Sets 20:15:08 0° 342° (NNW) 3,239 6.7 -24.9°
